owner,sensor,date,latitude,longitude,vertical_datum,wind_speed,wind_to_direction,wind_speed_of_gust,qcFlag 
TABS,ioos:station:wmo:42043:1,2012-09-01T00:00:00Z,28.9818,-94.9186,4.0,7.054714736,152.0185601,9.13,'11111222,11111222,11111222' 
TABS,ioos:station:wmo:42043:1,2012-09-01T00:30:00Z,28.9818,-94.9186,4.0,6.977083918,147.5857788,8.84,'11111222,11111222,11111222' 
TABS,ioos:station:wmo:42043:1,2012-09-01T01:00:00Z,28.9818,-94.9186,4.0,6.838983843,144.1022705,9.12,'11111222,11111222,11111222' 
TABS,ioos:station:wmo:42043:1,2012-09-01T01:30:00Z,28.9818,-94.9186,4.0,6.753636058,149.1820203,8.45,'11111222,11111222,11111222' 
TABS,ioos:station:wmo:42043:1,2012-09-01T02:00:00Z,28.9818,-94.9186,4.0,7.24240982,149.1857687,9.0,'11111222,11111222,11111222' 
TABS,ioos:station:wmo:42043:1,2012-09-01T02:30:00Z,28.9818,-94.9186,4.0,7.009964337,155.921593,8.75,'11111222,11111222,11111222' 
TABS,ioos:station:wmo:42043:1,2012-09-01T03:00:00Z,28.9818,-94.9186,4.0,7.604268538,158.3947337,9.42,'11111222,11111222,11111222' 
TABS,ioos:station:wmo:42043:1,2012-09-01T03:30:00Z,28.9818,-94.9186,4.0,7.915788021,162.2748829,9.76,'11111222,11111222,11111222' 
TABS,ioos:station:wmo:42043:1,2012-09-01T04:00:00Z,28.9818,-94.9186,4.0,8.023222545,162.2202127,9.72,'11111222,11111222,11111222' 
TABS,ioos:station:wmo:42043:1,2012-09-01T04:30:00Z,28.9818,-94.9186,4.0,8.785544946,157.726546,10.9,'11111222,11111222,11111222' 
TABS,ioos:station:wmo:42043:1,2012-09-01T05:00:00Z,28.9818,-94.9186,4.0,9.286145594,163.4192014,11.08,'11111222,11111222,11111222' 
TABS,ioos:station:wmo:42043:1,2012-09-01T05:30:00Z,28.9818,-94.9186,4.0,8.691616651,160.4395527,10.97,'11111222,11111222,11111222' 
TABS,ioos:station:wmo:42043:1,2012-09-01T06:00:00Z,28.9818,-94.9186,4.0,7.88995564,166.4395445,10.06,'11111222,11111222,11111222' 
TABS,ioos:station:wmo:42043:1,2012-09-01T06:30:00Z,28.9818,-94.9186,4.0,8.633944637,160.7258682,10.67,'11111222,11111222,11111222' 
TABS,ioos:station:wmo:42043:1,2012-09-01T07:00:00Z,28.9818,-94.9186,4.0,8.191635978,166.9479562,10.8,'11111222,11111222,11111222' 
TABS,ioos:station:wmo:42043:1,2012-09-01T07:30:00Z,28.9818,-94.9186,4.0,8.274206911,170.4696064,10.22,'11111222,11111222,11111222' 
TABS,ioos:station:wmo:42043:1,2012-09-01T08:00:00Z,28.9818,-94.9186,4.0,8.182811253,167.8663587,10.21,'11111222,11111222,11111222' 
TABS,ioos:station:wmo:42043:1,2012-09-01T08:30:00Z,28.9818,-94.9186,4.0,7.947439839,167.8702352,9.9,'11111222,11111222,11111222' 
TABS,ioos:station:wmo:42043:1,2012-09-01T09:00:00Z,28.9818,-94.9186,4.0,7.38241153,171.4310886,8.89,'11111222,11111222,11111222' 
TABS,ioos:station:wmo:42043:1,2012-09-01T09:30:00Z,28.9818,-94.9186,4.0,7.570099075,168.5715572,9.82,'11111222,11111222,11111222' 
TABS,ioos:station:wmo:42043:1,2012-09-01T10:00:00Z,28.9818,-94.9186,4.0,6.923366233,176.4393712,8.47,'11111222,11111222,11111222' 
TABS,ioos:station:wmo:42043:1,2012-09-01T10:30:00Z,28.9818,-94.9186,4.0,7.083141958,163.1770392,9.2,'11111222,11111222,11111222' 
TABS,ioos:station:wmo:42043:1,2012-09-01T11:00:00Z,28.9818,-94.9186,4.0,7.766723891,166.7512733,9.96,'11111222,11111222,11111222' 
TABS,ioos:station:wmo:42043:1,2012-09-01T11:30:00Z,28.9818,-94.9186,4.0,6.957988215,175.8794021,8.76,'11111222,11111222,11111222' 
TABS,ioos:station:wmo:42043:1,2012-09-01T12:00:00Z,28.9818,-94.9186,4.0,6.047230771,173.6391074,7.54,'11111222,11111222,11111222' 
TABS,ioos:station:wmo:42043:1,2012-09-01T12:30:00Z,28.9818,-94.9186,4.0,7.047701753,157.4742026,9.18,'11111222,11111222,11111222' 
TABS,ioos:station:wmo:42043:1,2012-09-01T13:00:00Z,28.9818,-94.9186,4.0,5.645360927,158.7077144,7.3,'11111222,11111222,11111222' 
TABS,ioos:station:wmo:42043:1,2012-09-01T13:30:00Z,28.9818,-94.9186,4.0,4.751841748,171.5290856,5.91,'11111222,11111222,11111222' 
TABS,ioos:station:wmo:42043:1,2012-09-01T14:00:00Z,28.9818,-94.9186,4.0,5.082135378,169.6853044,6.68,'11111222,11111222,11111222' 
TABS,ioos:station:wmo:42043:1,2012-09-01T14:30:00Z,28.9818,-94.9186,4.0,4.847772684,161.6026796,6.21,'11111222,11111222,11111222' 
TABS,ioos:station:wmo:42043:1,2012-09-01T15:00:00Z,28.9818,-94.9186,4.0,5.053711507,153.9422493,6.47,'11111222,11111222,11111222' 
TABS,ioos:station:wmo:42043:1,2012-09-01T15:30:00Z,28.9818,-94.9186,4.0,6.74887398,163.4717695,9.33,'11111222,11111222,11111222' 
TABS,ioos:station:wmo:42043:1,2012-09-01T16:00:00Z,28.9818,-94.9186,4.0,5.308267137,175.2455436,7.04,'11111222,11111222,11111222' 
TABS,ioos:station:wmo:42043:1,2012-09-01T16:30:00Z,28.9818,-94.9186,4.0,4.956863928,167.5341187,6.33,'11111222,11111222,11111222' 
TABS,ioos:station:wmo:42043:1,2012-09-01T17:00:00Z,28.9818,-94.9186,4.0,6.024392086,158.8876382,7.63,'11111222,11111222,11111222' 
TABS,ioos:station:wmo:42043:1,2012-09-01T17:30:00Z,28.9818,-94.9186,4.0,5.884114207,166.4363357,7.54,'11111222,11111222,11111222' 
TABS,ioos:station:wmo:42043:1,2012-09-01T18:00:00Z,28.9818,-94.9186,4.0,5.972620865,170.459056,7.6,'11111222,11111222,11111222' 
TABS,ioos:station:wmo:42043:1,2012-09-01T18:30:00Z,28.9818,-94.9186,4.0,6.373860683,171.8828397,8.32,'11111222,11111222,11111222' 
TABS,ioos:station:wmo:42043:1,2012-09-01T19:00:00Z,28.9818,-94.9186,4.0,5.833455237,169.730528,7.2,'11111222,11111222,11111222' 
TABS,ioos:station:wmo:42043:1,2012-09-01T19:30:00Z,28.9818,-94.9186,4.0,4.797103293,190.9353343,6.36,'11111222,11111222,11111222' 
TABS,ioos:station:wmo:42043:1,2012-09-01T20:00:00Z,28.9818,-94.9186,4.0,5.47284204,195.2552935,7.07,'11111222,11111222,11111222' 
TABS,ioos:station:wmo:42043:1,2012-09-01T20:30:00Z,28.9818,-94.9186,4.0,4.794079682,198.7374651,6.35,'11111222,11111222,11111222' 
TABS,ioos:station:wmo:42043:1,2012-09-01T21:00:00Z,28.9818,-94.9186,4.0,6.500007692,269.9118529,8.72,'11111222,11111222,11111222' 
TABS,ioos:station:wmo:42043:1,2012-09-01T21:30:00Z,28.9818,-94.9186,4.0,3.020066224,292.9992479,4.66,'11111222,11111222,11111222' 
TABS,ioos:station:wmo:42043:1,2012-09-01T22:00:00Z,28.9818,-94.9186,4.0,1.23199026,356.7425752,2.13,'11111222,11111222,11111222' 
TABS,ioos:station:wmo:42043:1,2012-09-01T22:30:00Z,28.9818,-94.9186,4.0,0.444072066,324.1622204,1.57,'11111222,11111222,11111222' 
TABS,ioos:station:wmo:42043:1,2012-09-01T23:00:00Z,28.9818,-94.9186,4.0,0.86452299,299.8270149,1.62,'11111222,11111222,11111222' 
TABS,ioos:station:wmo:42043:1,2012-09-01T23:30:00Z,28.9818,-94.9186,4.0,0.931933474,273.6913774,1.54,'11111222,11111222,11111222' 
TABS,ioos:station:wmo:42043:1,2012-09-02T00:00:00Z,28.9818,-94.9186,4.0,0.446430286,285.5927745,1.58,'11111222,11111222,11111222' 
TABS,ioos:station:wmo:42043:1,2012-09-02T00:30:00Z,28.9818,-94.9186,4.0,1.053043209,18.26263678,1.9,'11111222,11111222,11111222' 
TABS,ioos:station:wmo:42043:1,2012-09-02T01:00:00Z,28.9818,-94.9186,4.0,1.900657781,72.23198016,2.9,'11111222,11111222,11111222' 
TABS,ioos:station:wmo:42043:1,2012-09-02T01:30:00Z,28.9818,-94.9186,4.0,3.440886514,97.6830751,4.48,'11111222,11111222,11111222' 
TABS,ioos:station:wmo:42043:1,2012-09-02T02:00:00Z,28.9818,-94.9186,4.0,3.438037231,109.5420965,4.52,'11111222,11111222,11111222' 
TABS,ioos:station:wmo:42043:1,2012-09-02T02:30:00Z,28.9818,-94.9186,4.0,4.861738372,141.5981648,6.72,'11111222,11111222,11111222' 
TABS,ioos:station:wmo:42043:1,2012-09-02T03:00:00Z,28.9818,-94.9186,4.0,5.273604081,149.2042204,6.54,'11111222,11111222,11111222' 
TABS,ioos:station:wmo:42043:1,2012-09-02T03:30:00Z,28.9818,-94.9186,4.0,5.484715125,157.0348608,6.86,'11111222,11111222,11111222' 
TABS,ioos:station:wmo:42043:1,2012-09-02T04:00:00Z,28.9818,-94.9186,4.0,5.64163097,157.7085128,7.34,'11111222,11111222,11111222' 
TABS,ioos:station:wmo:42043:1,2012-09-02T04:30:00Z,28.9818,-94.9186,4.0,5.78581887,155.3842051,7.41,'11111222,11111222,11111222' 
TABS,ioos:station:wmo:42043:1,2012-09-02T05:00:00Z,28.9818,-94.9186,4.0,5.299745277,158.1787764,6.93,'11111222,11111222,11111222' 
TABS,ioos:station:wmo:42043:1,2012-09-02T05:30:00Z,28.9818,-94.9186,4.0,6.028764384,162.8276488,7.67,'11111222,11111222,11111222' 
TABS,ioos:station:wmo:42043:1,2012-09-02T06:00:00Z,28.9818,-94.9186,4.0,5.366721532,162.2067731,6.89,'11111222,11111222,11111222' 
TABS,ioos:station:wmo:42043:1,2012-09-02T06:30:00Z,28.9818,-94.9186,4.0,5.443620119,159.2347913,6.8,'11111222,11111222,11111222' 
TABS,ioos:station:wmo:42043:1,2012-09-02T07:00:00Z,28.9818,-94.9186,4.0,5.6554487,171.9704195,7.42,'11111222,11111222,11111222' 
TABS,ioos:station:wmo:42043:1,2012-09-02T07:30:00Z,28.9818,-94.9186,4.0,5.937078406,175.6533264,7.39,'11111222,11111222,11111222' 
TABS,ioos:station:wmo:42043:1,2012-09-02T08:00:00Z,28.9818,-94.9186,4.0,5.668730017,174.2292877,7.13,'11111222,11111222,11111222' 
TABS,ioos:station:wmo:42043:1,2012-09-02T08:30:00Z,28.9818,-94.9186,4.0,5.935596011,175.8458292,7.52,'11111222,11111222,11111222' 
TABS,ioos:station:wmo:42043:1,2012-09-02T09:00:00Z,28.9818,-94.9186,4.0,6.071902503,176.4121122,8.03,'11111222,11111222,11111222' 
TABS,ioos:station:wmo:42043:1,2012-09-02T09:30:00Z,28.9818,-94.9186,4.0,6.151747719,183.541678,7.94,'11111222,11111222,11111222' 
TABS,ioos:station:wmo:42043:1,2012-09-02T10:00:00Z,28.9818,-94.9186,4.0,6.08845629,193.1005994,8.33,'11111222,11111222,11111222' 
TABS,ioos:station:wmo:42043:1,2012-09-02T10:30:00Z,28.9818,-94.9186,4.0,6.08845629,193.1005994,8.33,'11111222,11111222,11111222' 
TABS,ioos:station:wmo:42043:1,2012-09-02T11:00:00Z,28.9818,-94.9186,4.0,0.22090722,264.8055832,2.51,'11111222,11111222,11111222' 
TABS,ioos:station:wmo:42043:1,2012-09-02T11:30:00Z,28.9818,-94.9186,4.0,6.650451113,205.9487268,8.14,'11111222,11111222,11111222' 
TABS,ioos:station:wmo:42043:1,2012-09-02T12:00:00Z,28.9818,-94.9186,4.0,5.764598859,206.6985483,7.71,'11111222,11111222,11111222' 
TABS,ioos:station:wmo:42043:1,2012-09-02T12:30:00Z,28.9818,-94.9186,4.0,5.982725132,213.1324011,7.76,'11111222,11111222,11111222' 
TABS,ioos:station:wmo:42043:1,2012-09-02T13:00:00Z,28.9818,-94.9186,4.0,6.180655305,203.4543661,7.94,'11111222,11111222,11111222' 
TABS,ioos:station:wmo:42043:1,2012-09-02T13:30:00Z,28.9818,-94.9186,4.0,5.379302929,197.8625156,6.55,'11111222,11111222,11111222' 
TABS,ioos:station:wmo:42043:1,2012-09-02T14:00:00Z,28.9818,-94.9186,4.0,4.378607084,200.1733234,5.47,'11111222,11111222,11111222' 
TABS,ioos:station:wmo:42043:1,2012-09-02T14:30:00Z,28.9818,-94.9186,4.0,3.767067825,208.1978875,4.71,'11111222,11111222,11111222' 
TABS,ioos:station:wmo:42043:1,2012-09-02T15:00:00Z,28.9818,-94.9186,4.0,3.601471921,210.9093273,4.74,'11111222,11111222,11111222' 
TABS,ioos:station:wmo:42043:1,2012-09-02T15:30:00Z,28.9818,-94.9186,4.0,3.513189434,208.753777,4.68,'11111222,11111222,11111222' 
TABS,ioos:station:wmo:42043:1,2012-09-02T16:00:00Z,28.9818,-94.9186,4.0,3.260705445,207.5868243,4.41,'11111222,11111222,11111222' 
TABS,ioos:station:wmo:42043:1,2012-09-02T16:30:00Z,28.9818,-94.9186,4.0,3.349641772,206.4122075,4.15,'11111222,11111222,11111222' 
TABS,ioos:station:wmo:42043:1,2012-09-02T17:00:00Z,28.9818,-94.9186,4.0,4.287213547,215.5067338,5.76,'11111222,11111222,11111222' 
TABS,ioos:station:wmo:42043:1,2012-09-02T17:30:00Z,28.9818,-94.9186,4.0,3.87331899,220.3928299,4.87,'11111222,11111222,11111222' 
TABS,ioos:station:wmo:42043:1,2012-09-02T18:00:00Z,28.9818,-94.9186,4.0,4.000312488,217.5861802,5.34,'11111222,11111222,11111222' 
TABS,ioos:station:wmo:42043:1,2012-09-02T18:30:00Z,28.9818,-94.9186,4.0,3.476391808,222.0853288,4.41,'11111222,11111222,11111222' 
TABS,ioos:station:wmo:42043:1,2012-09-02T19:00:00Z,28.9818,-94.9186,4.0,3.660737631,220.3467645,4.93,'11111222,11111222,11111222' 
TABS,ioos:station:wmo:42043:1,2012-09-02T19:30:00Z,28.9818,-94.9186,4.0,3.570224083,216.2280807,5.15,'11111222,11111222,11111222' 
TABS,ioos:station:wmo:42043:1,2012-09-02T20:00:00Z,28.9818,-94.9186,4.0,3.85945592,215.2961984,4.79,'11111222,11111222,11111222' 
TABS,ioos:station:wmo:42043:1,2012-09-02T20:30:00Z,28.9818,-94.9186,4.0,3.54035309,220.302998,4.56,'11111222,11111222,11111222' 
TABS,ioos:station:wmo:42043:1,2012-09-02T21:00:00Z,28.9818,-94.9186,4.0,3.792228896,214.9055061,5.21,'11111222,11111222,11111222' 
TABS,ioos:station:wmo:42043:1,2012-09-02T21:30:00Z,28.9818,-94.9186,4.0,4.000312488,214.9217467,5.19,'11111222,11111222,11111222' 
TABS,ioos:station:wmo:42043:1,2012-09-02T22:00:00Z,28.9818,-94.9186,4.0,4.202023322,196.451271,5.52,'11111222,11111222,11111222' 
TABS,ioos:station:wmo:42043:1,2012-09-02T22:30:00Z,28.9818,-94.9186,4.0,4.533001213,193.9137982,5.48,'11111222,11111222,11111222' 
TABS,ioos:station:wmo:42043:1,2012-09-02T23:00:00Z,28.9818,-94.9186,4.0,4.55241694,193.853271,5.82,'11111222,11111222,11111222' 
TABS,ioos:station:wmo:42043:1,2012-09-02T23:30:00Z,28.9818,-94.9186,4.0,5.070749452,192.5289889,6.27,'11111222,11111222,11111222' 
TABS,ioos:station:wmo:42043:1,2012-09-03T00:00:00Z,28.9818,-94.9186,4.0,4.728170894,189.7414162,5.72,'11111222,11111222,11111222' 
TABS,ioos:station:wmo:42043:1,2012-09-03T00:30:00Z,28.9818,-94.9186,4.0,5.439209501,187.7131722,6.78,'11111222,11111222,11111222' 
TABS,ioos:station:wmo:42043:1,2012-09-03T01:00:00Z,28.9818,-94.9186,4.0,5.128206314,183.2420079,6.53,'11111222,11111222,11111222' 
TABS,ioos:station:wmo:42043:1,2012-09-03T01:30:00Z,28.9818,-94.9186,4.0,5.433231083,186.3403874,6.68,'11111222,11111222,11111222' 
TABS,ioos:station:wmo:42043:1,2012-09-03T02:00:00Z,28.9818,-94.9186,4.0,5.058112296,190.7103003,6.43,'11111222,11111222,11111222' 
TABS,ioos:station:wmo:42043:1,2012-09-03T02:30:00Z,28.9818,-94.9186,4.0,4.82420978,193.5467267,6.23,'11111222,11111222,11111222' 
TABS,ioos:station:wmo:42043:1,2012-09-03T03:00:00Z,28.9818,-94.9186,4.0,5.28050187,193.2469123,6.54,'11111222,11111222,11111222' 
TABS,ioos:station:wmo:42043:1,2012-09-03T03:30:00Z,28.9818,-94.9186,4.0,5.394450852,193.289353,6.47,'11111222,11111222,11111222' 
TABS,ioos:station:wmo:42043:1,2012-09-03T04:00:00Z,28.9818,-94.9186,4.0,6.56982496,184.4524153,8.26,'11111222,11111222,11111222' 
TABS,ioos:station:wmo:42043:1,2012-09-03T04:30:00Z,28.9818,-94.9186,4.0,6.34870853,186.3304212,8.42,'11111222,11111222,11111222' 
TABS,ioos:station:wmo:42043:1,2012-09-03T05:00:00Z,28.9818,-94.9186,4.0,6.306726568,185.2768776,7.73,'11111222,11111222,11111222' 
TABS,ioos:station:wmo:42043:1,2012-09-03T05:30:00Z,28.9818,-94.9186,4.0,5.973550033,186.9229631,7.48,'11111222,11111222,11111222' 
TABS,ioos:station:wmo:42043:1,2012-09-03T06:00:00Z,28.9818,-94.9186,4.0,5.394599151,186.4928626,6.83,'11111222,11111222,11111222' 
TABS,ioos:station:wmo:42043:1,2012-09-03T06:30:00Z,28.9818,-94.9186,4.0,5.917719155,187.2813287,7.75,'11111222,11111222,11111222' 
TABS,ioos:station:wmo:42043:1,2012-09-03T07:00:00Z,28.9818,-94.9186,4.0,6.586197689,192.0949393,8.3,'11111222,11111222,11111222' 
TABS,ioos:station:wmo:42043:1,2012-09-03T07:30:00Z,28.9818,-94.9186,4.0,6.289554833,194.831836,7.76,'11111222,11111222,11111222' 
TABS,ioos:station:wmo:42043:1,2012-09-03T08:00:00Z,28.9818,-94.9186,4.0,6.064956719,196.6722699,7.69,'11111222,11111222,11111222' 
TABS,ioos:station:wmo:42043:1,2012-09-03T08:30:00Z,28.9818,-94.9186,4.0,6.343287791,193.0286475,7.92,'11111222,11111222,11111222' 
TABS,ioos:station:wmo:42043:1,2012-09-03T09:00:00Z,28.9818,-94.9186,4.0,5.759140561,197.5856548,7.56,'11111222,11111222,11111222' 
TABS,ioos:station:wmo:42043:1,2012-09-03T09:30:00Z,28.9818,-94.9186,4.0,5.204853504,196.5201696,6.52,'11111222,11111222,11111222' 
TABS,ioos:station:wmo:42043:1,2012-09-03T10:00:00Z,28.9818,-94.9186,4.0,6.019202605,196.2070718,7.31,'11111222,11111222,11111222' 
TABS,ioos:station:wmo:42043:1,2012-09-03T10:30:00Z,28.9818,-94.9186,4.0,5.823650058,196.9726987,7.4,'11111222,11111222,11111222' 
TABS,ioos:station:wmo:42043:1,2012-09-03T11:00:00Z,28.9818,-94.9186,4.0,6.248727871,202.0910244,8.32,'11111222,11111222,11111222' 
TABS,ioos:station:wmo:42043:1,2012-09-03T11:30:00Z,28.9818,-94.9186,4.0,6.17547569,203.5764076,7.84,'11111222,11111222,11111222' 
TABS,ioos:station:wmo:42043:1,2012-09-03T12:00:00Z,28.9818,-94.9186,4.0,6.321115408,202.0203821,7.86,'11111222,11111222,11111222' 
TABS,ioos:station:wmo:42043:1,2012-09-03T12:30:00Z,28.9818,-94.9186,4.0,6.901188303,211.2486618,8.51,'11111222,11111222,11111222' 
TABS,ioos:station:wmo:42043:1,2012-09-03T13:00:00Z,28.9818,-94.9186,4.0,6.652616027,210.5355515,8.36,'11111222,11111222,11111222' 
TABS,ioos:station:wmo:42043:1,2012-09-03T13:30:00Z,28.9818,-94.9186,4.0,5.951167953,211.3931911,7.37,'11111222,11111222,11111222' 
TABS,ioos:station:wmo:42043:1,2012-09-03T14:00:00Z,28.9818,-94.9186,4.0,5.946427499,213.4764105,7.54,'11111222,11111222,11111222' 
TABS,ioos:station:wmo:42043:1,2012-09-03T14:30:00Z,28.9818,-94.9186,4.0,5.20040383,214.0263298,6.55,'11111222,11111222,11111222' 
TABS,ioos:station:wmo:42043:1,2012-09-03T15:00:00Z,28.9818,-94.9186,4.0,5.353064543,213.1855356,6.97,'11111222,11111222,11111222' 
TABS,ioos:station:wmo:42043:1,2012-09-03T15:30:00Z,28.9818,-94.9186,4.0,5.045017344,213.847691,6.6,'11111222,11111222,11111222' 
TABS,ioos:station:wmo:42043:1,2012-09-03T16:00:00Z,28.9818,-94.9186,4.0,4.778807383,213.3909211,5.98,'11111222,11111222,11111222' 
TABS,ioos:station:wmo:42043:1,2012-09-03T16:30:00Z,28.9818,-94.9186,4.0,5.070069033,214.066314,6.58,'11111222,11111222,11111222' 
TABS,ioos:station:wmo:42043:1,2012-09-03T17:00:00Z,28.9818,-94.9186,4.0,4.508946662,220.863284,6.02,'11111222,11111222,11111222' 
TABS,ioos:station:wmo:42043:1,2012-09-03T17:30:00Z,28.9818,-94.9186,4.0,4.102547989,212.760534,5.15,'11111222,11111222,11111222' 
TABS,ioos:station:wmo:42043:1,2012-09-03T18:00:00Z,28.9818,-94.9186,4.0,4.239587244,215.3021512,5.42,'11111222,11111222,11111222' 
TABS,ioos:station:wmo:42043:1,2012-09-03T18:30:00Z,28.9818,-94.9186,4.0,3.971259246,206.6297216,5.58,'11111222,11111222,11111222' 
TABS,ioos:station:wmo:42043:1,2012-09-03T19:00:00Z,28.9818,-94.9186,4.0,3.869638226,203.4514914,4.83,'11111222,11111222,11111222' 
TABS,ioos:station:wmo:42043:1,2012-09-03T19:30:00Z,28.9818,-94.9186,4.0,4.206019496,201.6244969,5.32,'11111222,11111222,11111222' 
TABS,ioos:station:wmo:42043:1,2012-09-03T20:00:00Z,28.9818,-94.9186,4.0,4.404543109,193.657821,5.75,'11111222,11111222,11111222' 
TABS,ioos:station:wmo:42043:1,2012-09-03T20:30:00Z,28.9818,-94.9186,4.0,4.946402733,196.200144,6.33,'11111222,11111222,11111222' 
TABS,ioos:station:wmo:42043:1,2012-09-03T21:00:00Z,28.9818,-94.9186,4.0,4.930922835,192.1760945,6.22,'11111222,11111222,11111222' 
TABS,ioos:station:wmo:42043:1,2012-09-03T21:30:00Z,28.9818,-94.9186,4.0,5.10494858,191.0679926,6.42,'11111222,11111222,11111222' 
TABS,ioos:station:wmo:42043:1,2012-09-03T22:00:00Z,28.9818,-94.9186,4.0,5.014708366,191.1532653,6.29,'11111222,11111222,11111222' 
TABS,ioos:station:wmo:42043:1,2012-09-03T22:30:00Z,28.9818,-94.9186,4.0,5.410110905,186.0480055,6.75,'11111222,11111222,11111222' 
TABS,ioos:station:wmo:42043:1,2012-09-03T23:00:00Z,28.9818,-94.9186,4.0,5.273604081,188.1763884,6.4,'11111222,11111222,11111222' 
TABS,ioos:station:wmo:42043:1,2012-09-03T23:30:00Z,28.9818,-94.9186,4.0,5.290831693,188.6969524,6.74,'11111222,11111222,11111222' 
TABS,ioos:station:wmo:42043:1,2012-09-04T00:00:00Z,28.9818,-94.9186,4.0,5.276911976,182.9330966,7.48,'11111222,11111222,11111222' 
TABS,ioos:station:wmo:42043:1,2012-09-04T00:30:00Z,28.9818,-94.9186,4.0,4.970160963,180.4613325,6.5,'11111222,11111222,11111222' 
TABS,ioos:station:wmo:42043:1,2012-09-04T01:00:00Z,28.9818,-94.9186,4.0,5.204651765,177.5776087,6.65,'11111222,11111222,11111222' 
TABS,ioos:station:wmo:42043:1,2012-09-04T01:30:00Z,28.9818,-94.9186,4.0,5.152184003,181.668544,6.98,'11111222,11111222,11111222' 
TABS,ioos:station:wmo:42043:1,2012-09-04T02:00:00Z,28.9818,-94.9186,4.0,5.035076961,194.2572125,6.4,'11111222,11111222,11111222' 
TABS,ioos:station:wmo:42043:1,2012-09-04T02:30:00Z,28.9818,-94.9186,4.0,5.308568545,185.9470596,6.82,'11111222,11111222,11111222' 
TABS,ioos:station:wmo:42043:1,2012-09-04T03:00:00Z,28.9818,-94.9186,4.0,5.918048665,186.5007592,7.24,'11111222,11111222,11111222' 
TABS,ioos:station:wmo:42043:1,2012-09-04T03:30:00Z,28.9818,-94.9186,4.0,6.149162545,193.0646355,7.63,'11111222,11111222,11111222' 
TABS,ioos:station:wmo:42043:1,2012-09-04T04:00:00Z,28.9818,-94.9186,4.0,6.352361766,191.7169636,7.87,'11111222,11111222,11111222' 
TABS,ioos:station:wmo:42043:1,2012-09-04T04:30:00Z,28.9818,-94.9186,4.0,6.870705932,188.7907331,8.49,'11111222,11111222,11111222' 
TABS,ioos:station:wmo:42043:1,2012-09-04T05:00:00Z,28.9818,-94.9186,4.0,6.847262227,189.6688565,8.67,'11111222,11111222,11111222' 
TABS,ioos:station:wmo:42043:1,2012-09-04T05:30:00Z,28.9818,-94.9186,4.0,6.401757571,192.9075889,8.12,'11111222,11111222,11111222' 
TABS,ioos:station:wmo:42043:1,2012-09-04T06:00:00Z,28.9818,-94.9186,4.0,6.91960259,193.7954314,9.36,'11111222,11111222,11111222' 
TABS,ioos:station:wmo:42043:1,2012-09-04T06:30:00Z,28.9818,-94.9186,4.0,7.049234001,199.1291075,9.08,'11111222,11111222,11111222' 
TABS,ioos:station:wmo:42043:1,2012-09-04T07:00:00Z,28.9818,-94.9186,4.0,7.466813243,201.8585654,9.8,'11111222,11111222,11111222' 
TABS,ioos:station:wmo:42043:1,2012-09-04T07:30:00Z,28.9818,-94.9186,4.0,7.083078427,203.8148052,9.38,'11111222,11111222,11111222' 
TABS,ioos:station:wmo:42043:1,2012-09-04T08:00:00Z,28.9818,-94.9186,4.0,7.422182967,204.0096713,9.28,'11111222,11111222,11111222' 
TABS,ioos:station:wmo:42043:1,2012-09-04T08:30:00Z,28.9818,-94.9186,4.0,7.264736747,207.9056166,9.03,'11111222,11111222,11111222' 
TABS,ioos:station:wmo:42043:1,2012-09-04T09:00:00Z,28.9818,-94.9186,4.0,6.915403097,207.7509685,8.68,'11111222,11111222,11111222' 
TABS,ioos:station:wmo:42043:1,2012-09-04T09:30:00Z,28.9818,-94.9186,4.0,6.657597164,211.1114874,8.36,'11111222,11111222,11111222' 
TABS,ioos:station:wmo:42043:1,2012-09-04T10:00:00Z,28.9818,-94.9186,4.0,6.967955224,207.1535808,9.46,'11111222,11111222,11111222' 
TABS,ioos:station:wmo:42043:1,2012-09-04T10:30:00Z,28.9818,-94.9186,4.0,6.53701002,212.0612629,8.03,'11111222,11111222,11111222' 
TABS,ioos:station:wmo:42043:1,2012-09-04T11:00:00Z,28.9818,-94.9186,4.0,6.328040771,208.7117683,8.18,'11111222,11111222,11111222' 
TABS,ioos:station:wmo:42043:1,2012-09-04T11:30:00Z,28.9818,-94.9186,4.0,6.245926673,208.2884742,7.68,'11111222,11111222,11111222' 
TABS,ioos:station:wmo:42043:1,2012-09-04T12:00:00Z,28.9818,-94.9186,4.0,6.019734213,207.0759941,7.97,'11111222,11111222,11111222' 
TABS,ioos:station:wmo:42043:1,2012-09-04T12:30:00Z,28.9818,-94.9186,4.0,5.608029957,213.8035436,7.27,'11111222,11111222,11111222' 
TABS,ioos:station:wmo:42043:1,2012-09-04T13:00:00Z,28.9818,-94.9186,4.0,5.548666506,202.1275447,6.99,'11111222,11111222,11111222' 
TABS,ioos:station:wmo:42043:1,2012-09-04T13:30:00Z,28.9818,-94.9186,4.0,5.087022705,215.7211087,6.55,'11111222,11111222,11111222' 
TABS,ioos:station:wmo:42043:1,2012-09-04T14:00:00Z,28.9818,-94.9186,4.0,5.544772313,214.492687,6.99,'11111222,11111222,11111222' 
TABS,ioos:station:wmo:42043:1,2012-09-04T14:30:00Z,28.9818,-94.9186,4.0,4.950737319,213.4655115,6.34,'11111222,11111222,11111222' 
TABS,ioos:station:wmo:42043:1,2012-09-04T15:00:00Z,28.9818,-94.9186,4.0,5.754172399,220.2774043,7.17,'11111222,11111222,11111222' 
TABS,ioos:station:wmo:42043:1,2012-09-04T15:30:00Z,28.9818,-94.9186,4.0,4.583819368,223.4089687,6.0,'11111222,11111222,11111222' 
TABS,ioos:station:wmo:42043:1,2012-09-04T16:00:00Z,28.9818,-94.9186,4.0,4.893883938,228.230441,6.35,'11111222,11111222,11111222' 
TABS,ioos:station:wmo:42043:1,2012-09-04T16:30:00Z,28.9818,-94.9186,4.0,4.747978517,227.1338294,6.49,'11111222,11111222,11111222' 
TABS,ioos:station:wmo:42043:1,2012-09-04T17:00:00Z,28.9818,-94.9186,4.0,5.028916384,234.2240059,6.39,'11111222,11111222,11111222' 
TABS,ioos:station:wmo:42043:1,2012-09-04T17:30:00Z,28.9818,-94.9186,4.0,5.034918073,224.356361,6.53,'11111222,11111222,11111222' 
TABS,ioos:station:wmo:42043:1,2012-09-04T18:00:00Z,28.9818,-94.9186,4.0,4.687867319,229.412057,6.33,'11111222,11111222,11111222' 
TABS,ioos:station:wmo:42043:1,2012-09-04T18:30:00Z,28.9818,-94.9186,4.0,4.162030754,218.6599283,5.34,'11111222,11111222,11111222' 